| time (UTC) | temp C | wind direction | speed KPH | gust KPH | rain 1hr cm | rain 24hr cm | rain mn cm | humidity % | barometer mb |
| 20260503234540 | 6 | 71 | 1.6 | 4.8 | 0.00 | 0.00 | 0.00 | 97 | 1009.4 |
| 20260503233041 | 7 | 71 | 0.0 | 4.8 | 0.00 | 0.00 | 0.00 | 97 | 1009.4 |
| 20260503231536 | 7 | 71 | 1.6 | 6.4 | 0.00 | 0.00 | 0.00 | 97 | 1009.6 |
| 20260503230049 | 7 | 67 | 0.0 | 4.8 | 0.00 | 0.00 | 0.00 | 97 | 1009.7 |
| 20260503224531 | 7 | 67 | 1.6 | 4.8 | 0.00 | 0.00 | 0.00 | 97 | 1009.6 |
| 20260503223029 | 7 | 67 | 1.6 | 4.8 | 0.00 | 0.00 | 0.00 | 97 | 1009.8 |
| 20260503221525 | 8 | 67 | 0.0 | 4.8 | 0.00 | 0.00 | 0.00 | 96 | 1009.9 |
| 20260503220023 | 8 | 63 | 3.2 | 6.4 | 0.00 | 0.00 | 0.00 | 96 | 1010.0 |
| 20260503214521 | 8 | 59 | 1.6 | 6.4 | 0.00 | 0.00 | 0.00 | 96 | 1010.1 |
| 20260503213021 | 8 | 63 | 1.6 | 8.0 | 0.00 | 0.00 | 0.00 | 96 | 1010.1 |
| 20260503211518 | 8 | 50 | 3.2 | 6.4 | 0.00 | 0.00 | 0.00 | 96 | 1010.2 |
| 20260503210017 | 8 | 38 | 4.8 | 8.0 | 0.00 | 0.00 | 0.00 | 96 | 1010.0 |
| 20260503204514 | 9 | 31 | 1.6 | 4.8 | 0.00 | 0.00 | 0.00 | 96 | 1010.3 |
| 20260503203034 | 9 | 360 | 3.2 | 8.0 | 0.00 | 0.00 | 0.00 | 97 | 1010.2 |
| 20260503201511 | 9 | 327 | 1.6 | 4.8 | 0.00 | 0.00 | 0.00 | 97 | 1010.2 |
| 20260503200012 | 10 | 303 | 0.0 | 6.4 | 0.00 | 0.00 | 0.00 | 97 | 1010.2 |
| 20260503194517 | 10 | 221 | 1.6 | 4.8 | 0.00 | 0.00 | 0.00 | 96 | 1010.3 |
| 20260503193007 | 10 | 221 | 0.0 | 3.2 | 0.00 | 0.00 | 0.00 | 96 | 1010.0 |
| 20260503191506 | 10 | 221 | 0.0 | 3.2 | 0.00 | 0.00 | 0.00 | 96 | 1010.1 |
| 20260503190007 | 10 | 221 | 0.0 | 4.8 | 0.00 | 0.00 | 0.00 | 95 | 1010.3 |
| 20260503184505 | 10 | 222 | 0.0 | 4.8 | 0.00 | 0.00 | 0.00 | 95 | 1010.2 |
| 20260503183003 | 10 | 195 | 1.6 | 3.2 | 0.00 | 0.00 | 0.00 | 94 | 1010.0 |
| 20260503181505 | 10 | 195 | 1.6 | 4.8 | 0.00 | 0.00 | 0.00 | 95 | 1010.2 |
| 20260503180003 | 11 | 205 | 3.2 | 6.4 | 0.00 | 0.00 | 0.00 | 94 | 1010.1 |
| 20260503174502 | 11 | 252 | 3.2 | 6.4 | 0.00 | 0.00 | 0.00 | 93 | 1010.0 |
| 20260503173002 | 11 | 217 | 3.2 | 6.4 | 0.00 | 0.00 | 0.00 | 90 | 1009.7 |
| 20260503171502 | 12 | 232 | 4.8 | 8.0 | 0.00 | 0.00 | 0.00 | 89 | 1009.7 |
| 20260503054540 | 13 | 186 | 1.6 | 8.0 | 0.00 | 0.00 | 0.00 | 86 | 1011.3 |
| 20260503053035 | 12 | 186 | 3.2 | 8.0 | 0.00 | 0.00 | 0.00 | 88 | 1011.4 |
| 20260503051518 | 12 | 187 | 3.2 | 8.0 | 0.00 | 0.00 | 0.00 | 90 | 1011.5 |
| 20260503050014 | 11 | 196 | 4.8 | 9.7 | 0.00 | 0.00 | 0.00 | 91 | 1011.5 |
| 20260503044513 | 11 | 182 | 3.2 | 8.0 | 0.00 | 0.00 | 0.00 | 92 | 1011.4 |
| 20260503043019 | 11 | 200 | 4.8 | 12.9 | 0.00 | 0.00 | 0.00 | 92 | 1011.6 |
| 20260503041511 | 11 | 175 | 1.6 | 4.8 | 0.00 | 0.00 | 0.00 | 92 | 1011.7 |
| 20260503033110 | 10 | 162 | 1.6 | 9.7 | 0.00 | 0.00 | 0.00 | 92 | 1011.5 |
| 20260503031558 | 10 | 203 | 9.7 | 16.1 | 0.00 | 0.00 | 0.00 | 92 | 1011.6 |
| 20260503030131 | 11 | 197 | 6.4 | 14.5 | 0.00 | 0.00 | 0.00 | 92 | 1011.6 |
| 20260503021546 | 12 | 196 | 4.8 | 17.7 | 0.00 | 0.00 | 0.00 | 89 | 1011.3 |
| 20260503020046 | 12 | 217 | 9.7 | 24.1 | 0.00 | 0.00 | 0.00 | 87 | 1011.4 |
| 20260503014544 | 12 | 198 | 8.0 | 17.7 | 0.00 | 0.00 | 0.00 | 87 | 1011.5 |
| 20260503013044 | 11 | 197 | 8.0 | 16.1 | 0.00 | 0.00 | 0.00 | 87 | 1011.7 |
| 20260503011543 | 12 | 219 | 8.0 | 19.3 | 0.00 | 0.00 | 0.00 | 85 | 1011.7 |
| 20260503010042 | 12 | 205 | 8.0 | 17.7 | 0.00 | 0.00 | 0.00 | 85 | 1011.7 |
| 20260503004541 | 12 | 202 | 8.0 | 17.7 | 0.00 | 0.00 | 0.00 | 84 | 1011.8 |
| 20260503003040 | 12 | 206 | 11.3 | 19.3 | 0.00 | 0.00 | 0.00 | 84 | 1011.9 |
| 20260503001538 | 12 | 216 | 8.0 | 16.1 | 0.00 | 0.00 | 0.00 | 85 | 1012.0 |
| 20260503000036 | 12 | 207 | 11.3 | 20.9 | 0.00 | 0.00 | 0.00 | 85 | 1012.1 |